Location: Pîcli?a
(45.7333°N, 22.7000°E)
Time: 00:44:17
(UTC+00:00)

Daily predictions for brighter satellites

Satellite Brightness Start Highest point End
(mag) Time Altitude Azimuth Time Altitude Azimuth Time Altitude Azimuth
SL-16 R/B 4.3 00:24:55 25° N 00:24:55 25° N 00:27:20 10° N
USA 281 4.4 00:16:06 10° NE 00:20:24 35° ENE 00:20:24 35° ENE
ATLAS CENTAUR R/B 4.0 00:30:37 54° NNE 00:30:37 54° NNE 00:39:20 10° NE
ADEOS II 4.3 00:24:01 10° NNE 00:25:42 20° NNE 00:25:42 20° NNE
CZ-2D R/B 4.3 00:28:35 10° NNE 00:30:15 21° NNE 00:30:15 21° NNE
Cosmos 2082 Rocket 4.5 00:50:59 16° NNW 00:50:59 16° NNW 00:52:37 10° N
COSMOS 2428 4.0 01:01:03 10° NNW 01:06:21 37° NE 01:11:36 10° ESE
USA 215 3.9 01:07:38 10° E 01:13:55 51° NNE 01:16:10 37° NNW
CZ-2C R/B 4.1 01:13:26 10° NE 01:17:24 26° E 01:17:30 26° E
ALOS 4.0 01:15:33 10° NNE 01:17:57 30° NNE 01:17:57 30° NNE
ATLAS 2AS CENTAUR R/B 3.5 01:22:06 43° NNW 01:22:06 43° NNW 01:28:34 10° NNE
Cosmos 1655 Rocket 4.1 01:28:17 75° N 01:28:17 75° N 01:34:05 10° N
SL-08 ROCKET BODY 4.5 01:33:04 74° NNE 01:33:04 74° NNE 01:38:35 10° N
Meteor 2-12 Rocket 4.5 01:36:46 69° NNW 01:36:46 69° NNW 01:42:13 10° N
CZ-2C R/B 3.3 01:33:19 10° NNE 01:38:52 75° E 01:38:52 75° E
Thor Agena Rocket 4.0 01:36:47 10° NNE 01:40:54 55° N 01:40:54 55° N
USA 229 DEB 4.3 01:36:31 10° NW 01:43:52 66° NE 01:51:49 10° SE
USA 229 4.3 01:36:37 10° NW 01:43:57 65° NE 01:51:52 10° SE
Resurs 1-4 Rocket 4.1 01:42:09 10° N 01:43:36 16° NNW 01:43:36 16° NNW
Meteor 1-14 Rocket 4.2 01:41:00 10° N 01:47:02 89° ENE 01:47:37 74° SSE
Cosmos 1743 Rocket 4.3 01:46:28 10° N 01:50:42 49° ENE 01:50:44 49° E
Cosmos 1867 3.6 01:52:32 71° SE 01:52:32 71° SE 01:57:22 10° SE
Cosmos 1805 Rocket 4.3 01:48:52 10° N 01:53:06 49° ENE 01:53:53 44° ESE
Meteor 2-6 Rocket 4.0 01:55:49 89° NW 01:55:49 89° NW 02:01:14 10° N
NOSS 3-1 (A) 4.0 01:55:41 27° NW 02:00:11 64° WSW 02:08:59 10° SSE
Sich 1 3.6 01:57:56 10° N 02:02:13 56° ENE 02:04:47 23° SSE
GP-B 3.7 02:00:52 37° SE 02:02:18 55° E 02:06:39 10° N
Meteor 1-10 Rocket 4.4 02:02:12 33° S 02:04:42 68° E 02:10:13 10° NNE
USA 281 3.6 02:00:40 10° NNE 02:06:48 43° NW 02:07:16 42° WNW
ADEOS II 3.8 02:04:21 10° N 02:06:36 20° NNW 02:06:36 20° NNW
BlueWalker 3 3.3 02:13:44 32° SE 02:13:44 32° SE 02:15:55 10° SE
IRS-1D 3.4 02:07:35 10° NNE 02:12:54 78° WNW 02:13:40 64° SW
YAOGAN 6 3.7 02:09:32 10° NNE 02:11:54 40° NE 02:11:54 40° NE
CZ-2D R/B 4.2 02:10:13 10° NNW 02:11:32 13° NW 02:11:32 13° NW
Cosmos 2315 Rocket 4.4 02:08:00 10° NNW 02:13:09 43° WNW 02:13:09 43° WNW
Envisat 3.0 02:10:18 10° NNE 02:15:24 77° ESE 02:17:37 34° S
Cosmos 2297 Rocket 3.2 02:13:12 14° S 02:17:48 44° ESE 02:23:08 10° NE
TIMED 4.5 02:21:40 64° S 02:22:16 81° ESE 02:26:38 10° NNE
Cosmos 1125 Rocket 3.6 02:25:57 49° WNW 02:26:14 50° WNW 02:31:18 10° NNE
Cosmos 2237 Rocket 2.7 02:22:16 10° NNW 02:27:55 60° ENE 02:33:31 10° SE
Nadezhda 2 Rocket 4.4 02:23:50 23° SSW 02:28:05 76° W 02:34:32 10° N
METEOR-M 4.1 02:25:42 10° N 02:30:59 62° WNW 02:32:41 41° SW
BREEZE-M DEB 3.5 02:32:04 31° NNE 02:32:04 31° NNE 02:33:52 10° ENE
Lacrosse 5 rocket 2.6 02:31:30 27° NNW 02:31:30 27° NNW 02:34:53 10° NE
Cosmos 1536 2.5 02:27:44 10° N 02:31:38 80° W 02:32:05 67° SSW
Cosmos 546 4.4 02:34:57 77° SW 02:35:00 77° SSW 02:38:49 10° ESE
SL-16 R/B 4.3 02:32:20 10° N 02:37:09 27° NE 02:41:55 10° ESE
Cosmos 2322 4.5 02:43:22 31° SW 02:43:22 31° SW 02:47:02 10° S
YAOGAN 11 4.2 02:38:45 10° S 02:43:09 53° W 02:47:30 10° NNW
Okean 1 3.3 02:40:43 18° S 02:43:25 75° E 02:47:17 10° NNE
SL-08 R/B 4.4 02:41:15 12° SSW 02:47:00 68° W 02:53:06 10° N
Nadezhda 1 Rocket 4.0 02:41:14 10° N 02:47:34 89° E 02:53:45 10° S
COBE Rocket 3.8 02:43:44 10° N 02:48:35 72° WNW 02:52:53 14° SSW
NOSS 0 Rocket 3.9 02:43:19 10° NNW 02:49:30 63° WSW 02:55:37 10° SSE
Cosmos 1726 3.5 02:46:23 10° N 02:49:35 36° ENE 02:52:47 10° SE
PAYLOAD A 4.2 02:45:19 10° N 02:50:02 48° WNW 02:52:13 29° SW
H-2A R/B 3.7 02:46:50 10° NNE 02:50:10 42° E 02:53:29 10° S
COSMOS 2428 3.1 02:45:22 10° NW 02:50:35 38° WSW 02:55:48 10° S
ERS-2 4.4 02:50:08 10° NE 02:52:41 22° E 02:55:13 10° SSE
CBERS-1 3.9 02:48:20 10° N 02:53:27 72° WNW 02:58:27 10° SSW
CZ-2C R/B 2.8 02:51:19 10° N 02:55:40 37° WNW 02:56:50 31° W
USA 215 3.2 02:50:19 10° SE 02:56:49 66° SW 03:03:22 10° NW
ALOS 3.9 02:53:57 10° NNW 02:56:20 17° NW 02:56:20 17° NW
Cosmos 1151 Rocket 3.0 02:54:47 19° SSW 02:57:45 60° W 03:02:06 10° N
Meteor 2-20 Rocket 4.5 02:56:10 10° N 03:02:28 87° E 03:08:28 10° S
Cosmos 2227 Rocket 2.8 02:58:59 10° S 03:04:32 59° ESE 03:10:07 10° NNE
Cosmos 1386 Rocket 4.4 02:59:39 10° SSW 03:05:55 69° W 03:12:07 10° N
ARIANE 5 R/B 2.9 03:01:43 10° NNE 03:06:43 64° ESE 03:11:39 10° S
Cosmos 1733 3.9 03:04:46 10° N 03:08:25 53° E 03:12:00 10° SSE
Cosmos 1666 Rocket 3.4 03:04:05 10° NNW 03:08:27 73° W 03:12:45 10° S
Cosmos 1328 Rocket 3.6 03:04:15 10° S 03:08:39 85° ESE 03:13:05 10° N
Cosmos 44 Rocket 3.4 03:05:11 20° SW 03:08:43 71° NW 03:13:54 10° NNE
COSMO-SKYMED 1 3.9 03:06:32 10° SE 03:10:36 42° ENE 03:14:43 10° N
Meteor 2-20 4.5 03:04:37 10° NNW 03:10:40 59° W 03:16:40 10° S
Meteor 1-27 Rocket 3.8 03:05:48 10° SSW 03:11:18 56° WNW 03:16:58 10° N
DMSP B5D2-2 4.1 03:08:59 10° S 03:14:09 57° W 03:19:22 10° NNW
ATLAS 2AS CENTAUR R/B 4.4 03:09:32 10° WNW 03:14:39 20° NNW 03:19:40 10° NNE
CZ-2D R/B 4.1 03:16:34 10° NNE 03:20:53 61° E 03:25:11 10° S
Meteor 1-19 Rocket 4.2 03:15:25 10° SSW 03:20:54 59° WNW 03:26:18 10° N
Cosmos 1709 Rocket 4.0 03:15:25 10° S 03:21:48 86° W 03:28:12 10° N
Helios 1A 3.0 03:19:06 10° S 03:23:06 54° W 03:27:08 10° NNW
Cosmos 1269 Rocket 4.0 03:19:12 10° NNW 03:24:24 60° WSW 03:29:34 10° S
IRS-P3 4.2 03:19:14 10° NNE 03:24:36 83° ESE 03:29:56 10° SSW
Cosmos 614 Rocket 4.2 03:25:24 10° NNW 03:30:16 44° WSW 03:35:09 10° S
Meteor 2-4 Rocket 3.9 03:25:29 10° S 03:31:24 84° E 03:37:15 10° NNE
Cosmos 1140 Rocket 4.4 03:28:13 10° NNW 03:33:22 54° ENE 03:38:29 10° SE
Cosmos 1980 4.1 03:28:27 10° NW 03:33:44 41° WSW 03:38:59 10° S
Cosmos 1805 3.4 03:31:01 10° N 03:34:48 76° E 03:38:34 10° SSE
Cosmos 1745 Rocket 4.3 03:29:57 10° SSW 03:36:02 47° WNW 03:42:09 10° N
Cosmos 1633 Rocket 3.4 03:32:52 10° NNW 03:37:04 44° W 03:41:14 10° SSW
Cosmos 1484 Rocket 3.7 03:37:46 10° NNW 03:40:48 25° WNW 03:43:50 10° SW
ATLAS CENTAUR R/B 1.8 03:37:28 10° NNW 03:40:59 53° NE 03:44:30 10° SE
Meteor 1-18 Rocket 4.3 03:36:20 10° S 03:42:13 85° W 03:48:01 10° N
H-2A R/B 2.2 03:37:05 10° NNE 03:42:35 90° N 03:47:57 10° SSW
BREEZE-M DEB (TANK) 3.6 03:38:34 10° WSW 03:48:25 79° NNW 03:51:42 10° ENE
BlueWalker 3 4.0 03:48:24 10° WSW 03:49:55 12° SW 03:51:33 10° SSW
PSLV R/B 4.1 03:50:05 10° NNE 03:54:13 63° ESE 03:58:18 10° S
Cosmos 2251 Rocket 3.9 03:50:51 10° NNW 03:56:06 71° ENE 04:01:19 10° SSE
SAR-Lupe-2 4.4 03:52:54 10° NNE 03:56:27 55° ESE 03:59:57 10° S
SKYMED 2 3.6 03:54:20 10° S 03:58:37 61° W 04:02:56 10° NNW
Cosmos 2297 Rocket 3.0 03:56:54 10° WSW 04:01:58 33° NW 04:07:04 10° NNE
Cosmos 2074 Rocket 4.4 03:56:14 10° S 04:02:24 71° E 04:08:35 10° NNE
Cosmos 1939 Rocket 3.1 04:00:06 10° N 04:03:47 44° WNW 04:07:30 10° SW
USA 81 4.2 04:01:52 10° N 04:07:11 83° E 04:12:28 10° S
